Погода в Заречном

Россия / Республика Татарстан     54°30′01″N   50°22′59″E
темп.,
°C
ветер,
м/с
пор.,
м/с
влажн.,
%
обл.,
%
осадки,
мм/ч
давл.,
гПа
погр.,
м
16 апреля, пт
пт1600:00+12ю116298 0.0 101910
03:00+11ююв0064100 0.0 101910
06:00+11св2264100 0.0 101915
09:00+15св4556100 0.0 1020384
12:00+18св554695 0.0 1021853
15:00+18св655150 0.0 10211067
18:00+14св7116658 0.0 1022431
21:00+11св6127581 0.0 1023369
17 апреля, сб
сб1700:00+9св5108533 0.0 1024314
03:00+7св510888 0.0 1024286
06:00+6св510813 0.0 1025326
09:00+11всв68540 0.0 1025622
12:00+14всв67425 0.0 10251022
15:00+15всв66380 0.0 10241156
18:00+12св48451 0.0 1024238
21:00+8св410530 0.0 1024231
18 апреля, вс
вс1800:00+6св39600 0.0 1024194
03:00+4св410665 0.0 1025188
06:00+5св410675 0.0 1025271
09:00+10всв57465 0.0 1025894
12:00+13всв6637100 0.0 10241323
15:00+14всв6637100 0.0 10241594
18:00+11всв595088 0.0 1024378
21:00+7всв7136752 0.0 1026566
19 апреля, пн
пн1900:00+5всв51165100 0.0 1027443
03:00+3всв61164100 0.0 1028379
06:00+3всв61262100 0.0 1028516
09:00+7всв8105649 0.0 1029969
12:00+9в894995 0.0 10291558
15:00+8в7956100 0.0 10301528
18:00+7вюв695985 0.0 10301244
21:00+5всв4106164 0.0 1031384
20 апреля, вт
вт2000:00+3в512615 0.0 1031383
03:00+2вюв512582 0.0 1033420
06:00+2вюв613550 0.0 1033560
09:00+5вюв79390 0.0 1033925
12:00+9вюв79294 0.0 10321257
15:00+10юв792632 0.0 10301370
18:00+8юв6103473 0.0 1029511
21:00+5вюв5134390 0.0 1029416